Thunderstorms From: 26-05-2018 21:24 Until: 27-05-2018 15:00 warning for: Thunderstorms Level: Yellow info button

Although rather usual in this region, locally or potentially dangerous phenomena are expected. (such as local winds, summer thunderstorms, rising streams or high waves) Be aware and pay attention to the latest weather updates, especially if you carry out activities exposed to weather or close to a stream or shoreline. 


Meteo18 Weather Cam more information Meteo18 Weather Cam


warning for Thunderstorms more information blitzortung!


Rain radar more information rain snow radar


Visit our other weather sites:

Template documentation
and downloads

And another site



Weather Underground History page Text

Daily Summary for November 6, 2016 Units:  Metric    English   Both
« Previous Day
Next Day »
Daily Weekly Monthly Yearly Custom
  High: Low: Average:
Temperature: -17.8 °C -16.3 °C -15.2 °C
Dew Point: -17.8 °C -17.2 °C -16 °C
Humidity: Humidity % 77 % 90 %
Wind Speed: 0 km/h 0 km/h 3.9 km/h
Wind Gust: 0 km/h - -
Wind:- - West
Pressure: 0 hPa 34063.2 hPa -
Precipitation: 50.8 mm    
Historical Graphs
 
 
Tabular Data for November 6, 2016
Time Temperature Dew Point Pressure Wind Wind Speed Wind Gust Humidity Rainfall Rate (Hourly)
-17.8 °C -17.8 °C 0 hPa Calm     Humidity % 0 mm
00:02 -14.6 °C -15.3 °C 34107.2 hPa Calm   5.1 km/h 92 % 0 mm
00:07 -14.6 °C -15.3 °C 34107.2 hPa Calm   5.1 km/h 92 % 0 mm
00:12 -14.6 °C -15.3 °C 34107.2 hPa Calm   5.1 km/h 92 % 0 mm
00:17 -14.7 °C -15.3 °C 34107.2 hPa Calm   2.6 km/h 92 % 0 mm
00:22 -14.7 °C -15.3 °C 34107.2 hPa Calm     92 % 0 mm
00:27 -14.7 °C -15.2 °C 34107.2 hPa Calm     93 % 0 mm
00:32 -14.7 °C -15.3 °C 34107.2 hPa Calm     93 % 0 mm
00:42 -14.7 °C -15.2 °C 34107.2 hPa Calm   2.6 km/h 93 % 0 mm
00:47 -14.6 °C -15.2 °C 34107.2 hPa Calm   2.6 km/h 93 % 0 mm
00:57 -14.6 °C -15.2 °C 34107.2 hPa Calm   5.1 km/h 93 % 0 mm
01:02 -14.6 °C -15.2 °C 34107.2 hPa Calm   2.6 km/h 93 % 0 mm
01:12 -14.6 °C -15.2 °C 34107.2 hPa Calm     93 % 0 mm
01:17 -14.6 °C -15.2 °C 34107.2 hPa Calm   5.1 km/h 93 % 0 mm
01:22 -14.6 °C -15.2 °C 34107.2 hPa WNW 2.6 km/h 5.1 km/h 93 % 0 mm
01:27 -14.6 °C -15.2 °C 34097 hPa NW 2.6 km/h 5.1 km/h 93 % 0 mm
01:32 -14.6 °C -15.2 °C 34097 hPa NW 5.1 km/h 7.7 km/h 93 % 0 mm
01:37 -14.6 °C -15.2 °C 34107.2 hPa WNW 7.7 km/h 10.3 km/h 93 % 0 mm
01:42 -14.6 °C -15.2 °C 34097 hPa NW 2.6 km/h 10.3 km/h 93 % 0 mm
01:47 -14.6 °C -15.2 °C 34097 hPa WNW 5.1 km/h 10.3 km/h 93 % 0 mm
01:52 -14.6 °C -15.2 °C 34097 hPa WNW 5.1 km/h 10.3 km/h 93 % 0 mm
01:57 -14.6 °C -15.2 °C 34097 hPa WNW 2.6 km/h 10.3 km/h 93 % 0 mm
02:02 -14.6 °C -15.2 °C 34097 hPa Calm   10.3 km/h 93 % 0 mm
02:07 -14.7 °C -15.2 °C 34097 hPa WNW 5.1 km/h 10.3 km/h 93 % 0 mm
02:12 -14.8 °C -15.3 °C 34097 hPa NW 7.7 km/h 10.3 km/h 94 % 0 mm
02:17 -14.8 °C -15.3 °C 34097 hPa WNW 5.1 km/h 12.9 km/h 94 % 0 mm
02:22 -14.8 °C -15.3 °C 34097 hPa NW 5.1 km/h 12.9 km/h 94 % 0 mm
02:32 -14.8 °C -15.3 °C 34097 hPa NNE 5.1 km/h 10.3 km/h 94 % 0 mm
02:42 -14.8 °C -15.3 °C 34097 hPa NW 2.6 km/h 18.2 km/h 94 % 0 mm
02:47 -14.8 °C -15.3 °C 34097 hPa NW 12.9 km/h 18.2 km/h 94 % 0 mm
02:52 -14.8 °C -15.3 °C 34097 hPa NW 2.6 km/h 12.9 km/h 94 % 0 mm
02:57 -14.8 °C -15.3 °C 34086.9 hPa North 2.6 km/h 12.9 km/h 94 % 0 mm
03:02 -14.9 °C -15.4 °C 34086.9 hPa Calm   12.9 km/h 94 % 0 mm
03:12 -14.9 °C -15.4 °C 34086.9 hPa NNW 2.6 km/h 7.7 km/h 94 % 0 mm
03:17 -14.9 °C -15.3 °C 34086.9 hPa Calm   7.7 km/h 95 % 0 mm
03:22 -14.9 °C -15.3 °C 34086.9 hPa WNW 7.7 km/h 10.3 km/h 95 % 0 mm
03:27 -14.9 °C -15.3 °C 34086.9 hPa NNW 7.7 km/h 10.3 km/h 95 % 0 mm
03:32 -14.9 °C -15.3 °C 34086.9 hPa NNW 5.1 km/h 12.9 km/h 95 % 0 mm
03:37 -14.9 °C -15.3 °C 34086.9 hPa North 2.6 km/h 12.9 km/h 95 % 0 mm
03:42 -15 °C -15.4 °C 34086.9 hPa Calm   12.9 km/h 95 % 0 mm
03:47 -15.1 °C -15.4 °C 34073.3 hPa Calm   7.7 km/h 95 % 0 mm
03:52 -15.1 °C -15.5 °C 34073.3 hPa NNW 2.6 km/h 7.7 km/h 95 % 0 mm
03:57 -15.1 °C -15.5 °C 34086.9 hPa Calm   5.1 km/h 95 % 0 mm
04:02 -15.1 °C -15.5 °C 34073.3 hPa Calm   2.6 km/h 95 % 0 mm
04:07 -15.1 °C -15.5 °C 34073.3 hPa Calm   2.6 km/h 95 % 0 mm
04:12 -15.2 °C -15.6 °C 34073.3 hPa Calm   2.6 km/h 95 % 0 mm
04:17 -15.2 °C -15.6 °C 34073.3 hPa Calm   5.1 km/h 95 % 0 mm
04:22 -15.1 °C -15.5 °C 34073.3 hPa Calm   7.7 km/h 95 % 0 mm
04:27 -15.1 °C -15.5 °C 34073.3 hPa North 2.6 km/h 7.7 km/h 95 % 0 mm
04:32 -15.2 °C -15.6 °C 34063.2 hPa Calm   7.7 km/h 95 % 0 mm
04:42 -15.2 °C -15.6 °C 34063.2 hPa Calm   12.9 km/h 95 % 0 mm
04:47 -15.2 °C -15.6 °C 34063.2 hPa Calm   12.9 km/h 95 % 0 mm
04:52 -15.2 °C -15.6 °C 34073.3 hPa WSW 10.3 km/h 12.9 km/h 95 % 0 mm
04:57 -15.2 °C -15.6 °C 34073.3 hPa SW 2.6 km/h 12.9 km/h 96 % 0 mm
05:02 -15.2 °C -15.6 °C 34073.3 hPa SW 7.7 km/h 12.9 km/h 96 % 0 mm
05:07 -15.2 °C -15.6 °C 34073.3 hPa WSW 7.7 km/h 12.9 km/h 96 % 0 mm
05:17 -15.2 °C -15.6 °C 34086.9 hPa WSW 2.6 km/h 15.6 km/h 95 % 0 mm
05:22 -15.2 °C -15.6 °C 34073.3 hPa Calm   15.6 km/h 95 % 0 mm
05:27 -15.2 °C -15.6 °C 34086.9 hPa WNW 2.6 km/h 10.3 km/h 95 % 0 mm
05:32 -15.2 °C -15.6 °C 34086.9 hPa WNW 10.3 km/h 10.3 km/h 95 % 0 mm
05:37 -15.2 °C -15.6 °C 34086.9 hPa Calm   15.6 km/h 95 % 0 mm
05:42 -15.2 °C -15.6 °C 34086.9 hPa Calm   15.6 km/h 95 % 0 mm
05:47 -15.2 °C -15.6 °C 34086.9 hPa WNW 2.6 km/h 15.6 km/h 95 % 0 mm
05:52 -15.2 °C -15.6 °C 34086.9 hPa WNW 5.1 km/h 10.3 km/h 96 % 0 mm
05:57 -15.2 °C -15.6 °C 34086.9 hPa NW 5.1 km/h 10.3 km/h 95 % 0 mm
06:02 -15.2 °C -15.6 °C 34073.3 hPa WNW 2.6 km/h 15.6 km/h 96 % 0 mm
06:07 -15.2 °C -15.6 °C 34086.9 hPa WNW 7.7 km/h 15.6 km/h 96 % 0 mm
06:12 -15.2 °C -15.6 °C 34086.9 hPa Calm   15.6 km/h 96 % 0 mm
06:17 -15.2 °C -15.6 °C 34073.3 hPa West 2.6 km/h 15.6 km/h 95 % 0 mm
06:22 -15.3 °C -15.6 °C 34086.9 hPa West 2.6 km/h 10.3 km/h 96 % 0 mm
06:27 -15.3 °C -15.7 °C 34073.3 hPa Calm   10.3 km/h 96 % 0 mm
06:32 -15.3 °C -15.7 °C 34073.3 hPa Calm   7.7 km/h 96 % 0 mm
06:37 -15.3 °C -15.7 °C 34073.3 hPa WNW 2.6 km/h 5.1 km/h 96 % 0 mm
06:42 -15.3 °C -15.6 °C 34073.3 hPa Calm   5.1 km/h 96 % 0 mm
06:47 -15.3 °C -15.6 °C 34073.3 hPa Calm   5.1 km/h 96 % 0 mm
06:52 -15.3 °C -15.6 °C 34073.3 hPa Calm   5.1 km/h 96 % 0 mm
06:57 -15.2 °C -15.6 °C 34073.3 hPa Calm   5.1 km/h 96 % 0 mm
07:07 -15.2 °C -15.6 °C 34073.3 hPa Calm   2.6 km/h 96 % 0 mm
07:12 -15.2 °C -15.6 °C 34073.3 hPa Calm   2.6 km/h 96 % 0 mm
07:17 -15.2 °C -15.6 °C 34073.3 hPa Calm   2.6 km/h 96 % 0 mm
07:22 -15.2 °C -15.6 °C 34073.3 hPa Calm   2.6 km/h 95 % 0 mm
07:27 -15.3 °C -15.7 °C 34073.3 hPa Calm   2.6 km/h 95 % 0 mm
07:32 -15.3 °C -15.7 °C 34073.3 hPa Calm     95 % 0 mm
07:37 -15.3 °C -15.7 °C 34073.3 hPa Calm     95 % 0 mm
07:42 -15.3 °C -15.7 °C 34073.3 hPa Calm     95 % 0 mm
07:47 -15.3 °C -15.7 °C 34086.9 hPa Calm     95 % 0 mm
07:52 -15.3 °C -15.7 °C 34073.3 hPa Calm     96 % 0 mm
07:57 -15.3 °C -15.7 °C 34086.9 hPa Calm   2.6 km/h 96 % 0 mm
08:02 -15.3 °C -15.7 °C 34086.9 hPa Calm   2.6 km/h 96 % 0 mm
08:07 -15.3 °C -15.6 °C 34086.9 hPa Calm   2.6 km/h 96 % 0 mm
08:12 -15.3 °C -15.6 °C 34086.9 hPa Calm     96 % 0 mm
08:17 -15.3 °C -15.6 °C 34086.9 hPa Calm   2.6 km/h 96 % 0 mm
08:22 -15.2 °C -15.6 °C 34086.9 hPa Calm   2.6 km/h 96 % 0 mm
08:27 -15.2 °C -15.6 °C 34086.9 hPa West 2.6 km/h 2.6 km/h 96 % 0 mm
08:32 -15.2 °C -15.6 °C 34086.9 hPa Calm   5.1 km/h 96 % 0 mm
08:37 -15.2 °C -15.6 °C 34086.9 hPa Calm   5.1 km/h 96 % 0 mm
08:42 -15.2 °C -15.6 °C 34086.9 hPa West 2.6 km/h 5.1 km/h 96 % 0 mm
08:47 -15.2 °C -15.6 °C 34097 hPa Calm   2.6 km/h 96 % 0 mm
08:52 -15.2 °C -15.5 °C 34097 hPa Calm   2.6 km/h 96 % 0 mm
08:57 -15.2 °C -15.5 °C 34097 hPa Calm   5.1 km/h 96 % 0 mm
09:02 -15.2 °C -15.5 °C 34097 hPa NW 18.2 km/h 18.2 km/h 96 % 0 mm
09:07 -15.4 °C -16 °C 34107.2 hPa NW 7.7 km/h 25.9 km/h 93 % 0 mm
09:12 -15.7 °C -16.3 °C 34107.2 hPa NNW 12.9 km/h 33.6 km/h 92 % 0 mm
09:17 -15.8 °C -16.4 °C 34107.2 hPa NNW 15.6 km/h 33.6 km/h 92 % 0 mm
09:22 -15.9 °C -16.4 °C 34107.2 hPa North 12.9 km/h 33.6 km/h 93 % 0 mm
09:32 -15.9 °C -16.4 °C 34107.2 hPa North 7.7 km/h 23.3 km/h 94 % 0 mm
09:37 -15.9 °C -16.4 °C 34107.2 hPa NNW 2.6 km/h 23.3 km/h 94 % 0 mm
09:47 -15.8 °C -16.3 °C 34107.2 hPa North 10.3 km/h 18.2 km/h 93 % 0 mm
09:57 -15.7 °C -16.4 °C 34097 hPa NW 2.6 km/h 18.2 km/h 92 % 0 mm
10:02 -15.7 °C -16.3 °C 34097 hPa North 5.1 km/h 20.8 km/h 92 % 0 mm
10:07 -15.5 °C -16.2 °C 34097 hPa NNW 5.1 km/h 20.8 km/h 92 % 0 mm
10:12 -15.4 °C -16.1 °C 34097 hPa North 7.7 km/h 15.6 km/h 92 % 0 mm
10:17 -15.3 °C -15.9 °C 34097 hPa NNW 5.1 km/h 18.2 km/h 92 % 0 mm
10:22 -15.2 °C -15.9 °C 34097 hPa Calm   18.2 km/h 91 % 0 mm
10:32 -15.1 °C -15.9 °C 34097 hPa NNE 5.1 km/h 18.2 km/h 90 % 0 mm
10:37 -14.9 °C -15.9 °C 34097 hPa NNW 5.1 km/h 12.9 km/h 89 % 0 mm
10:42 -14.9 °C -15.9 °C 34097 hPa NW 2.6 km/h 12.9 km/h 88 % 0 mm
10:47 -14.8 °C -15.9 °C 34097 hPa NNW 2.6 km/h 12.9 km/h 87 % 0 mm
10:52 -14.7 °C -15.8 °C 34097 hPa NNW 2.6 km/h 12.9 km/h 87 % 0 mm
10:57 -14.7 °C -15.9 °C 34097 hPa Calm   7.7 km/h 86 % 0 mm
11:02 -14.7 °C -15.9 °C 34107.2 hPa WNW 2.6 km/h 7.7 km/h 85 % 0 mm
11:07 -14.7 °C -15.9 °C 34107.2 hPa Calm   7.7 km/h 86 % 0 mm
11:12 -14.7 °C -15.9 °C 34107.2 hPa Calm   7.7 km/h 86 % 0 mm
11:17 -14.7 °C -15.9 °C 34107.2 hPa Calm   7.7 km/h 86 % 0 mm
11:22 -14.7 °C -15.8 °C 34107.2 hPa West 2.6 km/h 7.7 km/h 87 % 0 mm
11:27 -14.7 °C -15.9 °C 34107.2 hPa West 2.6 km/h 10.3 km/h 86 % 0 mm
11:32 -14.8 °C -15.9 °C 34107.2 hPa NW 2.6 km/h 10.3 km/h 87 % 0 mm
11:37 -14.8 °C -16 °C 34107.2 hPa WNW 2.6 km/h 10.3 km/h 86 % 0 mm
11:42 -14.8 °C -16.1 °C 34107.2 hPa NW 2.6 km/h 7.7 km/h 85 % 0 mm
11:47 -14.8 °C -16.1 °C 34107.2 hPa Calm   10.3 km/h 85 % 0 mm
11:52 -14.7 °C -16 °C 34107.2 hPa Calm   10.3 km/h 85 % 0 mm
11:57 -14.7 °C -15.9 °C 34097 hPa WNW 2.6 km/h 7.7 km/h 85 % 0 mm
12:02 -14.6 °C -15.8 °C 34097 hPa Calm   5.1 km/h 86 % 0 mm
12:07 -14.6 °C -15.8 °C 34107.2 hPa Calm   5.1 km/h 86 % 0 mm
12:12 -14.6 °C -15.8 °C 34097 hPa WSW 2.6 km/h 5.1 km/h 86 % 0 mm
12:22 -14.5 °C -15.7 °C 34097 hPa WNW 2.6 km/h 5.1 km/h 86 % 0 mm
12:27 -14.5 °C -15.7 °C 34097 hPa Calm   7.7 km/h 86 % 0 mm
12:32 -14.4 °C -15.7 °C 34097 hPa Calm   7.7 km/h 86 % 0 mm
12:42 -14.5 °C -15.7 °C 34097 hPa WNW 12.9 km/h 12.9 km/h 86 % 0 mm
12:47 -14.5 °C -15.7 °C 34097 hPa West 7.7 km/h 15.6 km/h 86 % 0 mm
12:57 -14.1 °C -15.3 °C 34086.9 hPa NW 2.6 km/h 15.6 km/h 86 % 0 mm
13:07 -14 °C -15.4 °C 34086.9 hPa NW 12.9 km/h 18.2 km/h 84 % 0 mm
13:12 -14.1 °C -15.5 °C 34086.9 hPa NW 7.7 km/h 20.8 km/h 84 % 0 mm
13:17 -14.2 °C -15.6 °C 34086.9 hPa NNW 2.6 km/h 20.8 km/h 84 % 0 mm
13:22 -14.2 °C -15.7 °C 34086.9 hPa West 12.9 km/h 20.8 km/h 83 % 0 mm
13:27 -14.2 °C -15.7 °C 34086.9 hPa NW 2.6 km/h 18.2 km/h 83 % 0 mm
13:32 -14.2 °C -15.7 °C 34086.9 hPa WNW 10.3 km/h 23.3 km/h 83 % 0 mm
13:37 -14.2 °C -15.6 °C 34086.9 hPa NNW 5.1 km/h 23.3 km/h 84 % 0 mm
13:42 -14.2 °C -15.6 °C 34086.9 hPa West 2.6 km/h 23.3 km/h 84 % 0 mm
13:47 -14.1 °C -15.3 °C 34086.9 hPa WNW 2.6 km/h 15.6 km/h 86 % 0 mm
13:57 -14.2 °C -15.5 °C 34086.9 hPa WNW 2.6 km/h 15.6 km/h 85 % 0 mm
14:02 -14.1 °C -15.6 °C 34073.3 hPa West 5.1 km/h 15.6 km/h 83 % 0 mm
14:12 -14 °C -15.7 °C 34073.3 hPa WNW 12.9 km/h 15.6 km/h 81 % 0 mm
14:17 -14.1 °C -15.7 °C 34073.3 hPa WSW 12.9 km/h 20.8 km/h 82 % 0 mm
14:22 -13.8 °C -15.3 °C 34073.3 hPa NNW 10.3 km/h 20.8 km/h 83 % 0 mm
14:32 -14 °C -16 °C 34063.2 hPa WNW 2.6 km/h 33.6 km/h 78 % 0 mm
14:37 -14.1 °C -15.9 °C 34063.2 hPa NE 5.1 km/h 33.6 km/h 79 % 0 mm
14:42 -14.3 °C -16.3 °C 34063.2 hPa NW 5.1 km/h 23.3 km/h 78 % 0 mm
14:47 -14.3 °C -16.3 °C 34073.3 hPa Calm   15.6 km/h 78 % 0 mm
14:57 -14.3 °C -16.3 °C 34073.3 hPa WNW 10.3 km/h 12.9 km/h 77 % 0 mm
15:02 -14.3 °C -16.3 °C 34073.3 hPa Calm   15.6 km/h 78 % 0 mm
15:12 -14.4 °C -16.3 °C 34073.3 hPa Calm   15.6 km/h 79 % 0 mm
15:22 -14.5 °C -16.2 °C 34073.3 hPa West 2.6 km/h 12.9 km/h 81 % 0 mm
15:32 -14.3 °C -16 °C 34073.3 hPa WNW 7.7 km/h 7.7 km/h 81 % 0 mm
15:42 -14.1 °C -16.1 °C 34073.3 hPa WNW 2.6 km/h 10.3 km/h 78 % 0 mm
15:47 -14.1 °C -16.1 °C 34073.3 hPa WNW 10.3 km/h 10.3 km/h 78 % 0 mm
15:52 -14.2 °C -16.1 °C 34073.3 hPa Calm   15.6 km/h 79 % 0 mm
15:57 -14.2 °C -16.1 °C 34073.3 hPa West 5.1 km/h 15.6 km/h 79 % 0 mm
16:02 -14.3 °C -16.1 °C 34073.3 hPa WSW 10.3 km/h 15.6 km/h 80 % 0 mm
16:07 -14.3 °C -15.9 °C 34086.9 hPa West 5.1 km/h 12.9 km/h 81 % 0 mm
16:12 -14.3 °C -15.9 °C 34086.9 hPa Calm   15.6 km/h 82 % 0 mm
16:22 -14.7 °C -16.3 °C 34097 hPa WNW 20.8 km/h 20.8 km/h 81 % 12.7 mm
16:32 -15.6 °C -16.9 °C 34097 hPa Calm   49.2 km/h 85 % 33.02 mm
16:42 -15.8 °C -16.9 °C 34086.9 hPa SW 5.1 km/h 33.6 km/h 86 % 50.8 mm
16:47 -15.8 °C -16.9 °C 34086.9 hPa West 5.1 km/h 23.3 km/h 87 % 50.8 mm
16:52 -15.8 °C -17 °C 34086.9 hPa WSW 2.6 km/h 23.3 km/h 86 % 50.8 mm
16:57 -15.7 °C -16.9 °C 34086.9 hPa West 5.1 km/h 15.6 km/h 86 % 50.8 mm
17:02 -15.7 °C -16.8 °C 34086.9 hPa West 5.1 km/h 10.3 km/h 87 % 50.8 mm
17:07 -15.7 °C -16.7 °C 34086.9 hPa West 2.6 km/h 10.3 km/h 88 % 50.8 mm
17:12 -15.8 °C -16.7 °C 34086.9 hPa West 5.1 km/h 10.3 km/h 89 % 50.8 mm
17:17 -15.8 °C -16.7 °C 34097 hPa WNW 2.6 km/h 7.7 km/h 90 % 45.72 mm
17:27 -15.8 °C -16.6 °C 34097 hPa West 2.6 km/h 5.1 km/h 90 % 33.02 mm
17:32 -15.8 °C -16.6 °C 34097 hPa Calm   5.1 km/h 90 % 12.7 mm
17:37 -15.8 °C -16.5 °C 34097 hPa WSW 2.6 km/h 5.1 km/h 91 % 7.62 mm
17:42 -15.8 °C -16.6 °C 34097 hPa WSW 2.6 km/h 5.1 km/h 90 % 0 mm
17:47 -15.7 °C -16.6 °C 34097 hPa SW 2.6 km/h 7.7 km/h 90 % 0 mm
17:52 -15.7 °C -16.5 °C 34097 hPa SW 5.1 km/h 7.7 km/h 90 % 0 mm
17:57 -15.7 °C -16.5 °C 34097 hPa SW 2.6 km/h 7.7 km/h 90 % 0 mm
18:02 -15.7 °C -16.5 °C 34097 hPa SW 5.1 km/h 7.7 km/h 90 % 0 mm
18:12 -15.7 °C -16.3 °C 34097 hPa West 2.6 km/h 7.7 km/h 92 % 0 mm
18:17 -15.7 °C -16.4 °C 34097 hPa Calm   7.7 km/h 92 % 0 mm
18:22 -15.7 °C -16.4 °C 34097 hPa Calm   7.7 km/h 92 % 0 mm
18:27 -15.7 °C -16.3 °C 34107.2 hPa SW 7.7 km/h 7.7 km/h 93 % 0 mm
18:32 -15.7 °C -16.3 °C 34107.2 hPa Calm   5.1 km/h 93 % 0 mm
18:42 -15.7 °C -16.2 °C 34107.2 hPa WNW 5.1 km/h 10.3 km/h 94 % 0 mm
18:52 -15.7 °C -16.2 °C 34107.2 hPa West 2.6 km/h 7.7 km/h 94 % 0 mm
19:02 -15.7 °C -16.2 °C 34107.2 hPa West 2.6 km/h 10.3 km/h 94 % 0 mm
19:07 -15.7 °C -16.2 °C 34107.2 hPa WNW 7.7 km/h 15.6 km/h 94 % 0 mm
19:12 -15.6 °C -16.2 °C 34107.2 hPa West 2.6 km/h 15.6 km/h 93 % 0 mm
19:17 -15.7 °C -16.2 °C 34107.2 hPa Calm   15.6 km/h 93 % 0 mm
19:22 -15.7 °C -16.3 °C 34107.2 hPa WSW 15.6 km/h 23.3 km/h 92 % 0 mm
19:27 -15.6 °C -16.3 °C 34107.2 hPa West 12.9 km/h 23.3 km/h 91 % 0 mm
19:37 -15.7 °C -16.6 °C 34107.2 hPa West 5.1 km/h 23.3 km/h 89 % 0 mm
19:42 -15.7 °C -16.6 °C 34107.2 hPa WNW 10.3 km/h 18.2 km/h 89 % 0 mm
19:47 -15.7 °C -16.6 °C 34107.2 hPa WNW 7.7 km/h 18.2 km/h 89 % 0 mm
19:52 -15.7 °C -16.7 °C 34107.2 hPa West 12.9 km/h 20.8 km/h 88 % 0 mm
19:57 -15.7 °C -16.6 °C 34107.2 hPa West 10.3 km/h 28.5 km/h 89 % 0 mm
20:02 -15.7 °C -16.6 °C 34107.2 hPa WSW 10.3 km/h 28.5 km/h 89 % 0 mm
20:12 -15.7 °C -16.8 °C 34107.2 hPa West 10.3 km/h 20.8 km/h 87 % 0 mm
20:17 -15.7 °C -16.8 °C 34120.7 hPa West 18.2 km/h 20.8 km/h 87 % 0 mm
20:22 -15.7 °C -16.7 °C 34120.7 hPa WSW 5.1 km/h 25.9 km/h 88 % 0 mm
20:27 -15.8 °C -16.8 °C 34120.7 hPa WSW 12.9 km/h 25.9 km/h 88 % 0 mm
20:32 -15.8 °C -16.8 °C 34120.7 hPa WSW 5.1 km/h 18.2 km/h 88 % 0 mm
20:37 -15.8 °C -16.8 °C 34120.7 hPa West 5.1 km/h 15.6 km/h 88 % 0 mm
20:42 -15.8 °C -16.8 °C 34120.7 hPa WNW 2.6 km/h 15.6 km/h 88 % 0 mm
20:52 -15.9 °C -16.8 °C 34130.9 hPa Calm   10.3 km/h 89 % 0 mm
20:57 -15.9 °C -16.8 °C 34120.7 hPa WNW 2.6 km/h 5.1 km/h 89 % 0 mm
21:02 -15.9 °C -16.8 °C 34130.9 hPa Calm   5.1 km/h 89 % 0 mm
21:17 -15.9 °C -16.9 °C 34130.9 hPa Calm   5.1 km/h 88 % 0 mm
21:22 -15.9 °C -16.9 °C 34130.9 hPa WSW 10.3 km/h 10.3 km/h 88 % 0 mm
21:27 -15.9 °C -16.8 °C 34130.9 hPa West 2.6 km/h 10.3 km/h 89 % 0 mm
21:32 -15.9 °C -16.9 °C 34130.9 hPa WSW 7.7 km/h 10.3 km/h 88 % 0 mm
21:37 -15.9 °C -16.9 °C 34130.9 hPa West 5.1 km/h 15.6 km/h 88 % 0 mm
21:42 -15.9 °C -16.9 °C 34130.9 hPa SW 7.7 km/h 15.6 km/h 88 % 0 mm
21:47 -15.9 °C -16.9 °C 34130.9 hPa Calm   15.6 km/h 88 % 0 mm
21:52 -15.9 °C -16.8 °C 34130.9 hPa NW 2.6 km/h 12.9 km/h 89 % 0 mm
21:57 -15.9 °C -16.9 °C 34130.9 hPa Calm   12.9 km/h 88 % 0 mm
22:02 -15.9 °C -16.9 °C 34130.9 hPa West 7.7 km/h 7.7 km/h 88 % 0 mm
22:07 -15.9 °C -16.8 °C 34130.9 hPa WNW 10.3 km/h 10.3 km/h 89 % 0 mm
22:17 -16 °C -16.9 °C 34130.9 hPa West 5.1 km/h 10.3 km/h 89 % 0 mm
22:22 -16 °C -16.9 °C 34130.9 hPa West 5.1 km/h 10.3 km/h 89 % 0 mm
22:27 -16 °C -16.9 °C 34130.9 hPa West 7.7 km/h 12.9 km/h 89 % 0 mm
22:32 -16.1 °C -16.9 °C 34130.9 hPa West 2.6 km/h 12.9 km/h 89 % 0 mm
22:37 -16.1 °C -16.9 °C 34130.9 hPa WNW 2.6 km/h 12.9 km/h 89 % 0 mm
22:42 -16.2 °C -17.1 °C 34130.9 hPa WNW 5.1 km/h 12.9 km/h 89 % 0 mm
22:47 -16.2 °C -17.1 °C 34130.9 hPa WSW 5.1 km/h 12.9 km/h 89 % 0 mm
22:52 -16.2 °C -17.1 °C 34130.9 hPa WSW 15.6 km/h 15.6 km/h 90 % 0 mm
22:57 -16.2 °C -17.1 °C 34130.9 hPa West 7.7 km/h 20.8 km/h 89 % 0 mm
23:02 -16.2 °C -17.1 °C 34130.9 hPa SW 10.3 km/h 20.8 km/h 89 % 0 mm
23:07 -16.3 °C -17.1 °C 34130.9 hPa West 5.1 km/h 20.8 km/h 90 % 0 mm
23:17 -16.3 °C -17.2 °C 34130.9 hPa West 2.6 km/h 15.6 km/h 90 % 0 mm
23:27 -16.3 °C -17.1 °C 34130.9 hPa WSW 10.3 km/h 20.8 km/h 91 % 0 mm
23:32 -16.3 °C -17.1 °C 34130.9 hPa SW 5.1 km/h 20.8 km/h 91 % 0 mm
Meteo18
Compliments of Weather Underground - 4 mb

Script developed by  Jim McMurry - jmcmurry@mwt.net Adapted for the template by  Wim van der Kuil - Leuven-Template.eu

You find our weather info also at:

European Weather Network

Weather Underground

Equipment we use:

Weather-station
Davis Vue

Weather-program
Meteobridge

Weather-server
Raspberry PI 2 B+

Provider
1 and 1

Davis Vue

Meteobridge

Raspberry PI 2 B+

1 and 1